Time,TemperatureF,DewpointF,PressureIn,WindDirection,WindDirectionDegrees,WindSpeedMPH,WindSpeedGustMPH,Humidity,HourlyPrecipIn,Conditions,Clouds,dailyrainin,SoftwareType,DateUTC
2013-07-08 00:02:00,74.0,-99.9,-100.00,SSW,202,0.0,-999.0,-999,-99.99,,,-99.99,,2013-07-08 04:02:00,
2013-07-08 00:12:00,74.0,-99.9,-100.00,SSW,202,0.0,-999.0,-999,-99.99,,,-99.99,,2013-07-08 04:12:00,
2013-07-08 00:22:00,74.0,-99.9,-100.00,SSW,202,0.0,-999.0,-999,-99.99,,,-99.99,,2013-07-08 04:22:00,
2013-07-08 00:33:00,74.0,-99.9,-100.00,SSW,202,0.0,-999.0,-999,-99.99,,,-99.99,,2013-07-08 04:33:00,
2013-07-08 00:43:00,74.0,-99.9,-100.00,SSW,202,0.0,-999.0,-999,-99.99,,,-99.99,,2013-07-08 04:43:00,
2013-07-08 00:53:00,74.0,-99.9,-100.00,SSW,202,0.0,-999.0,-999,-99.99,,,-99.99,,2013-07-08 04:53:00,
2013-07-08 01:02:00,74.0,-99.9,-100.00,SSW,202,1.0,-999.0,-999,-99.99,,,-99.99,,2013-07-08 05:02:00,
2013-07-08 01:12:00,74.0,-99.9,-100.00,SSW,202,1.0,-999.0,-999,-99.99,,,-99.99,,2013-07-08 05:12:00,
2013-07-08 01:22:00,74.0,-99.9,-100.00,SSW,202,0.0,-999.0,-999,-99.99,,,-99.99,,2013-07-08 05:22:00,
2013-07-08 01:34:00,74.0,-99.9,-100.00,SSW,202,0.0,-999.0,-999,-99.99,,,-99.99,,2013-07-08 05:34:00,
2013-07-08 01:43:00,74.0,-99.9,-100.00,SSW,202,0.0,-999.0,-999,-99.99,,,-99.99,,2013-07-08 05:43:00,
2013-07-08 01:53:00,74.0,-99.9,-100.00,SSW,202,2.0,-999.0,-999,-99.99,,,-99.99,,2013-07-08 05:53:00,
2013-07-08 02:02:00,74.0,-99.9,-100.00,South,187,0.0,-999.0,-999,-99.99,,,-99.99,,2013-07-08 06:02:00,
2013-07-08 02:12:00,74.0,-99.9,-100.00,South,187,0.0,-999.0,-999,-99.99,,,-99.99,,2013-07-08 06:12:00,
2013-07-08 02:22:00,74.0,-99.9,-100.00,South,189,0.0,-999.0,-999,-99.99,,,-99.99,,2013-07-08 06:22:00,
2013-07-08 02:34:00,73.0,-99.9,-100.00,SSW,203,0.0,-999.0,-999,-99.99,,,-99.99,,2013-07-08 06:34:00,
2013-07-08 02:43:00,73.0,-99.9,-100.00,SSW,203,0.0,-999.0,-999,-99.99,,,-99.99,,2013-07-08 06:43:00,
2013-07-08 02:53:00,71.0,-99.9,-100.00,SSW,196,0.0,-999.0,-999,-99.99,,,-99.99,,2013-07-08 06:53:00,
2013-07-08 03:02:00,71.0,-99.9,-100.00,SSW,196,0.0,-999.0,-999,-99.99,,,-99.99,,2013-07-08 07:02:00,
2013-07-08 03:12:00,71.0,-99.9,-100.00,SSW,196,0.0,-999.0,-999,-99.99,,,-99.99,,2013-07-08 07:12:00,
2013-07-08 03:22:00,71.0,-99.9,-100.00,South,189,3.0,-999.0,-999,-99.99,,,-99.99,,2013-07-08 07:22:00,
2013-07-08 03:34:00,71.0,-99.9,-100.00,East,100,0.0,-999.0,-999,-99.99,,,-99.99,,2013-07-08 07:34:00,
2013-07-08 03:44:00,71.0,-99.9,-100.00,East,100,0.0,-999.0,-999,-99.99,,,-99.99,,2013-07-08 07:44:00,
2013-07-08 03:53:00,70.0,-99.9,-100.00,East,98,0.0,-999.0,-999,-99.99,,,-99.99,,2013-07-08 07:53:00,
2013-07-08 04:02:00,71.0,-99.9,-100.00,East,98,0.0,-999.0,-999,-99.99,,,-99.99,,2013-07-08 08:02:00,
2013-07-08 04:12:00,71.0,-99.9,-100.00,East,98,0.0,-999.0,-999,-99.99,,,-99.99,,2013-07-08 08:12:00,
2013-07-08 04:22:00,71.0,-99.9,-100.00,East,98,0.0,-999.0,-999,-99.99,,,-99.99,,2013-07-08 08:22:00,
2013-07-08 04:34:00,71.0,-99.9,-100.00,East,98,0.0,-999.0,-999,-99.99,,,-99.99,,2013-07-08 08:34:00,
2013-07-08 04:42:00,71.0,-99.9,-100.00,East,98,0.0,-999.0,-999,-99.99,,,-99.99,,2013-07-08 08:42:00,
2013-07-08 04:53:00,71.0,-99.9,-100.00,East,98,0.0,-999.0,-999,-99.99,,,-99.99,,2013-07-08 08:53:00,
2013-07-08 05:02:00,70.0,-99.9,-100.00,East,98,0.0,-999.0,-999,-99.99,,,-99.99,,2013-07-08 09:02:00,
2013-07-08 05:12:00,70.0,-99.9,-100.00,East,98,0.0,-999.0,-999,-99.99,,,-99.99,,2013-07-08 09:12:00,
2013-07-08 05:22:00,70.0,-99.9,-100.00,SSW,203,0.0,-999.0,-999,-99.99,,,-99.99,,2013-07-08 09:22:00,
2013-07-08 05:34:00,70.0,-99.9,-100.00,SSW,203,0.0,-999.0,-999,-99.99,,,-99.99,,2013-07-08 09:34:00,
2013-07-08 05:43:00,70.0,-99.9,-100.00,SSW,203,0.0,-999.0,-999,-99.99,,,-99.99,,2013-07-08 09:43:00,
2013-07-08 05:53:00,70.0,-99.9,-100.00,SSW,203,0.0,-999.0,-999,-99.99,,,-99.99,,2013-07-08 09:53:00,
2013-07-08 06:02:00,69.0,-99.9,-100.00,SSW,203,0.0,-999.0,-999,-99.99,,,-99.99,,2013-07-08 10:02:00,
2013-07-08 06:11:00,69.0,-99.9,-100.00,SSW,203,0.0,-999.0,-999,-99.99,,,-99.99,,2013-07-08 10:11:00,
2013-07-08 06:22:00,69.0,-99.9,-100.00,SSW,203,0.0,-999.0,-999,-99.99,,,-99.99,,2013-07-08 10:22:00,
2013-07-08 06:34:00,69.0,-99.9,-100.00,SSW,203,0.0,-999.0,-999,-99.99,,,-99.99,,2013-07-08 10:34:00,
2013-07-08 06:43:00,69.0,-99.9,-100.00,SSW,203,0.0,-999.0,-999,-99.99,,,-99.99,,2013-07-08 10:43:00,
2013-07-08 06:53:00,69.0,-99.9,-100.00,SSW,203,0.0,-999.0,-999,-99.99,,,-99.99,,2013-07-08 10:53:00,
2013-07-08 07:02:00,69.0,-99.9,-100.00,SSW,203,0.0,-999.0,-999,-99.99,,,-99.99,,2013-07-08 11:02:00,
2013-07-08 07:11:00,69.0,-99.9,-100.00,SSW,203,0.0,-999.0,-999,-99.99,,,-99.99,,2013-07-08 11:11:00,
2013-07-08 07:23:00,70.0,-99.9,-100.00,SSW,203,0.0,-999.0,-999,-99.99,,,-99.99,,2013-07-08 11:23:00,
2013-07-08 07:34:00,70.0,-99.9,-100.00,SSW,202,0.0,-999.0,-999,-99.99,,,-99.99,,2013-07-08 11:34:00,
2013-07-08 07:43:00,70.0,-99.9,-100.00,SSW,202,0.0,-999.0,-999,-99.99,,,-99.99,,2013-07-08 11:43:00,
2013-07-08 07:53:00,71.0,-99.9,-100.00,SSW,201,0.0,-999.0,-999,-99.99,,,-99.99,,2013-07-08 11:53:00,
2013-07-08 08:02:00,71.0,-99.9,-100.00,SSW,199,0.0,-999.0,-999,-99.99,,,-99.99,,2013-07-08 12:02:00,
2013-07-08 08:12:00,71.0,-99.9,-100.00,SSW,199,0.0,-999.0,-999,-99.99,,,-99.99,,2013-07-08 12:12:00,
2013-07-08 08:22:00,72.0,-99.9,-100.00,SSW,198,0.0,-999.0,-999,-99.99,,,-99.99,,2013-07-08 12:22:00,
2013-07-08 08:34:00,73.0,-99.9,-100.00,South,186,0.0,-999.0,-999,-99.99,,,-99.99,,2013-07-08 12:34:00,
2013-07-08 08:53:00,74.0,-99.9,-100.00,South,188,0.0,-999.0,-999,-99.99,,,-99.99,,2013-07-08 12:53:00,
2013-07-08 09:02:00,75.0,-99.9,-100.00,South,191,0.0,-999.0,-999,-99.99,,,-99.99,,2013-07-08 13:02:00,
2013-07-08 09:12:00,75.0,-99.9,-100.00,South,191,0.0,-999.0,-999,-99.99,,,-99.99,,2013-07-08 13:12:00,
2013-07-08 09:22:00,76.0,-99.9,-100.00,South,190,0.0,-999.0,-999,-99.99,,,-99.99,,2013-07-08 13:22:00,
2013-07-08 09:43:00,77.0,-99.9,-100.00,SSW,196,0.0,-999.0,-999,-99.99,,,-99.99,,2013-07-08 13:43:00,
2013-07-08 09:53:00,79.0,-99.9,-100.00,SW,231,0.0,-999.0,-999,-99.99,,,-99.99,,2013-07-08 13:53:00,
2013-07-08 10:02:00,79.0,-99.9,-100.00,SW,231,0.0,-999.0,-999,-99.99,,,-99.99,,2013-07-08 14:02:00,
2013-07-08 10:12:00,78.0,-99.9,-100.00,SSW,200,0.0,-999.0,-999,-99.99,,,-99.99,,2013-07-08 14:12:00,
2013-07-08 10:23:00,78.0,-99.9,-100.00,SSW,198,2.0,-999.0,-999,-99.99,,,-99.99,,2013-07-08 14:23:00,
2013-07-08 10:34:00,78.0,-99.9,-100.00,SSW,198,2.0,-999.0,-999,-99.99,,,-99.99,,2013-07-08 14:34:00,
2013-07-08 10:43:00,78.0,-99.9,-100.00,SW,214,0.0,-999.0,-999,-99.99,,,-99.99,,2013-07-08 14:43:00,
2013-07-08 10:53:00,78.0,-99.9,-100.00,SSW,208,3.0,-999.0,-999,-99.99,,,-99.99,,2013-07-08 14:53:00,
2013-07-08 11:02:00,78.0,-99.9,-100.00,SSW,208,3.0,-999.0,-999,-99.99,,,-99.99,,2013-07-08 15:02:00,
2013-07-08 11:12:00,80.0,-99.9,-100.00,South,180,0.0,-999.0,-999,-99.99,,,-99.99,,2013-07-08 15:12:00,
2013-07-08 11:33:00,80.0,-99.9,-100.00,SW,224,0.0,-999.0,-999,-99.99,,,-99.99,,2013-07-08 15:33:00,
2013-07-08 11:43:00,81.0,-99.9,-100.00,SSW,210,0.0,-999.0,-999,-99.99,,,-99.99,,2013-07-08 15:43:00,
2013-07-08 11:53:00,81.0,-99.9,-100.00,SW,223,0.0,-999.0,-999,-99.99,,,-99.99,,2013-07-08 15:53:00,
2013-07-08 12:02:00,81.0,-99.9,-100.00,SW,223,0.0,-999.0,-999,-99.99,,,-99.99,,2013-07-08 16:02:00,
2013-07-08 12:22:00,80.0,-99.9,-100.00,SSW,210,3.0,-999.0,-999,-99.99,,,-99.99,,2013-07-08 16:22:00,
2013-07-08 12:43:00,80.0,-99.9,-100.00,SSW,197,0.0,-999.0,-999,-99.99,,,-99.99,,2013-07-08 16:43:00,
2013-07-08 12:59:00,80.0,-99.9,-100.00,SW,221,1.0,-999.0,-999,-99.99,,,-99.99,,2013-07-08 16:59:00,
2013-07-08 13:08:00,80.0,-99.9,-100.00,SW,221,1.0,-999.0,-999,-99.99,,,-99.99,,2013-07-08 17:08:00,
2013-07-08 13:16:00,80.0,-99.9,-100.00,WSW,245,1.0,-999.0,-999,-99.99,,,-99.99,,2013-07-08 17:16:00,
2013-07-08 13:38:00,80.0,-99.9,-100.00,SW,232,0.0,-999.0,-999,-99.99,,,-99.99,,2013-07-08 17:38:00,
2013-07-08 13:49:00,79.0,-99.9,-100.00,WSW,257,0.0,-999.0,-999,-99.99,,,-99.99,,2013-07-08 17:49:00,
2013-07-08 13:57:00,78.0,-99.9,-100.00,WSW,251,0.0,-999.0,-999,-99.99,,,-99.99,,2013-07-08 17:57:00,
2013-07-08 14:48:00,79.0,-99.9,-100.00,SW,230,0.0,-999.0,-999,-99.99,,,-99.99,,2013-07-08 18:48:00,
2013-07-08 14:58:00,78.0,-99.9,-100.00,WSW,242,0.0,-999.0,-999,-99.99,,,-99.99,,2013-07-08 18:58:00,
2013-07-08 15:05:00,77.0,-99.9,-100.00,WSW,241,0.0,-999.0,-999,-99.99,,,-99.99,,2013-07-08 19:05:00,
2013-07-08 15:36:00,77.0,-99.9,-100.00,WSW,240,0.0,-999.0,-999,-99.99,,,-99.99,,2013-07-08 19:36:00,
2013-07-08 16:00:00,76.0,-99.9,-100.00,WSW,240,0.0,-999.0,-999,-99.99,,,-99.99,,2013-07-08 20:00:00,
2013-07-08 16:11:00,77.0,-99.9,-100.00,SW,225,0.0,-999.0,-999,-99.99,,,-99.99,,2013-07-08 20:11:00,
2013-07-08 16:24:00,77.0,-99.9,-100.00,SW,229,0.0,-999.0,-999,-99.99,,,-99.99,,2013-07-08 20:24:00,
2013-07-08 16:51:00,76.0,-99.9,-100.00,WSW,239,2.0,-999.0,-999,-99.99,,,-99.99,,2013-07-08 20:51:00,
2013-07-08 17:49:00,78.0,-99.9,-100.00,SSW,192,0.0,-999.0,-999,-99.99,,,-99.99,,2013-07-08 21:49:00,
2013-07-08 18:36:00,80.0,-99.9,-100.00,South,179,0.0,-999.0,-999,-99.99,,,-99.99,,2013-07-08 22:36:00,
2013-07-08 19:03:00,81.0,-99.9,-100.00,South,177,0.0,-999.0,-999,-99.99,,,-99.99,,2013-07-08 23:03:00,
2013-07-08 19:13:00,80.0,-99.9,-100.00,South,178,0.0,-999.0,-999,-99.99,,,-99.99,,2013-07-08 23:13:00,
2013-07-08 19:22:00,82.0,-99.9,-100.00,South,178,5.0,-999.0,-999,-99.99,,,-99.99,,2013-07-08 23:22:00,
2013-07-08 19:36:00,82.0,-99.9,-100.00,South,180,2.0,-999.0,-999,-99.99,,,-99.99,,2013-07-08 23:36:00,
2013-07-08 19:51:00,82.0,-99.9,-100.00,South,180,2.0,-999.0,-999,-99.99,,,-99.99,,2013-07-08 23:51:00,
2013-07-08 20:13:00,81.0,-99.9,-100.00,SSW,210,0.0,-999.0,-999,-99.99,,,-99.99,,2013-07-09 00:13:00,
2013-07-08 20:23:00,81.0,-99.9,-100.00,SSW,210,2.0,-999.0,-999,-99.99,,,-99.99,,2013-07-09 00:23:00,
2013-07-08 20:28:00,81.0,-99.9,-100.00,SSW,210,2.0,-999.0,-999,-99.99,,,-99.99,,2013-07-09 00:28:00,
2013-07-08 20:37:00,81.0,-99.9,-100.00,SSW,204,0.0,-999.0,-999,-99.99,,,-99.99,,2013-07-09 00:37:00,
2013-07-08 21:13:00,80.0,-99.9,-100.00,SSW,202,0.0,-999.0,-999,-99.99,,,-99.99,,2013-07-09 01:13:00,
2013-07-08 21:21:00,80.0,-99.9,-100.00,SSW,202,0.0,-999.0,-999,-99.99,,,-99.99,,2013-07-09 01:21:00,
2013-07-08 21:38:00,80.0,-99.9,-100.00,SSW,202,0.0,-999.0,-999,-99.99,,,-99.99,,2013-07-09 01:38:00,
2013-07-08 22:21:00,79.0,-99.9,-100.00,SSW,202,0.0,-999.0,-999,-99.99,,,-99.99,,2013-07-09 02:21:00,
2013-07-08 22:52:00,79.0,-99.9,-100.00,SSW,208,0.0,-999.0,-999,-99.99,,,-99.99,,2013-07-09 02:52:00,
2013-07-08 23:04:00,79.0,-99.9,-100.00,SSW,208,0.0,-999.0,-999,-99.99,,,-99.99,,2013-07-09 03:04:00,
2013-07-08 23:28:00,77.0,-99.9,-100.00,SSW,205,0.0,-999.0,-999,-99.99,,,-99.99,,2013-07-09 03:28:00,
2013-07-08 23:38:00,78.0,-99.9,-100.00,SSW,205,0.0,-999.0,-999,-99.99,,,-99.99,,2013-07-09 03:38:00,